TimeEDT,TemperatureF,Dew PointF,Humidity,Sea Level PressureIn,VisibilityMPH,Wind Direction,Wind SpeedMPH,Gust SpeedMPH,PrecipitationIn,Events,Conditions,WindDirDegrees,DateUTC
12:51 AM,48.0,34.0,58,30.33,10.0,NNE,11.5,-,N/A,,Mostly Cloudy,20,2013-10-29 04:51:00
1:51 AM,48.0,30.9,52,30.34,10.0,NNE,9.2,-,N/A,,Mostly Cloudy,30,2013-10-29 05:51:00
2:51 AM,45.0,30.9,58,30.34,10.0,North,8.1,-,N/A,,Mostly Cloudy,10,2013-10-29 06:51:00
3:51 AM,46.9,30.0,52,30.35,10.0,North,10.4,-,N/A,,Mostly Cloudy,10,2013-10-29 07:51:00
4:51 AM,46.0,30.9,56,30.36,10.0,North,8.1,-,N/A,,Mostly Cloudy,10,2013-10-29 08:51:00
5:51 AM,45.0,30.9,58,30.39,10.0,NNE,9.2,-,N/A,,Mostly Cloudy,20,2013-10-29 09:51:00
6:51 AM,43.0,30.9,62,30.39,10.0,North,9.2,-,N/A,,Mostly Cloudy,10,2013-10-29 10:51:00
7:51 AM,43.0,32.0,65,30.40,10.0,North,11.5,-,N/A,,Mostly Cloudy,10,2013-10-29 11:51:00
8:51 AM,46.0,30.9,56,30.41,10.0,NNE,12.7,-,N/A,,Scattered Clouds,20,2013-10-29 12:51:00
9:51 AM,48.0,30.0,50,30.42,10.0,North,10.4,-,N/A,,Mostly Cloudy,10,2013-10-29 13:51:00
10:51 AM,50.0,28.9,44,30.42,10.0,North,8.1,-,N/A,,Scattered Clouds,360,2013-10-29 14:51:00
11:51 AM,53.1,30.0,41,30.41,10.0,Variable,5.8,-,N/A,,Scattered Clouds,0,2013-10-29 15:51:00
12:51 PM,54.0,30.9,41,30.40,10.0,North,5.8,-,N/A,,Scattered Clouds,10,2013-10-29 16:51:00
1:51 PM,55.0,30.9,40,30.37,10.0,Calm,Calm,-,N/A,,Scattered Clouds,0,2013-10-29 17:51:00
2:51 PM,57.0,30.9,37,30.36,10.0,Calm,Calm,-,N/A,,Scattered Clouds,0,2013-10-29 18:51:00
3:51 PM,55.9,30.9,39,30.36,10.0,ESE,5.8,-,N/A,,Scattered Clouds,110,2013-10-29 19:51:00
4:51 PM,55.0,30.9,40,30.37,10.0,NNE,6.9,-,N/A,,Scattered Clouds,20,2013-10-29 20:51:00
5:51 PM,52.0,30.9,45,30.36,10.0,NNE,4.6,-,N/A,,Scattered Clouds,30,2013-10-29 21:51:00
6:51 PM,48.0,32.0,54,30.37,10.0,NNE,9.2,-,N/A,,Scattered Clouds,20,2013-10-29 22:51:00
7:51 PM,46.9,32.0,56,30.39,10.0,NNE,6.9,-,N/A,,Scattered Clouds,20,2013-10-29 23:51:00
8:51 PM,45.0,30.0,56,30.38,10.0,NNE,6.9,-,N/A,,Scattered Clouds,20,2013-10-30 00:51:00
9:51 PM,44.1,30.9,60,30.37,10.0,NNE,5.8,-,N/A,,Scattered Clouds,20,2013-10-30 01:51:00
10:51 PM,46.0,30.9,56,30.38,10.0,North,3.5,-,N/A,,Scattered Clouds,10,2013-10-30 02:51:00
11:51 PM,46.9,30.9,54,30.36,10.0,Calm,Calm,-,N/A,,Mostly Cloudy,0,2013-10-30 03:51:00